Lid_Strength_Index
8 7 7 8 8 8 8 8 10 8 8 7 6 6 5 3 3 3 3 3 4 3 2 2 3 2 2 2 2 1 2 2 2 1 1 1 1 1 1 1 1 1 1 1
9 7 8 8 7 7 7 7 8 7 8 5 5 4 5 5 4 4 4 3 3 3 3 3 3 3 2 2 2 1 2 2 2 2 1 1 1 1 1 1 1 1 1 1
11 8 8 10 8 7 7 7 7 9 7 5 5 5 5 5 4 4 4 3 3 3 3 3 3 2 3 2 2 2 2 2 2 2 2 2 1 1 1 1 1 1 1 1
11 10 14 8 6 6 7 6 6 6 5 5 5 4 4 3 3 3 3 3 2 2 3 2 2 2 2 2 2 2 2 2 2 2 2 2 2 2 2 1 1 1 1 1
12 11 9 8 7 7 7 8 5 6 5 5 4 4 4 3 3 3 3 2 2 2 2 2 2 2 2 2 2 2 2 2 2 2 2 2 2 2 2 2 2 2 1 1
10 12 14 8 6 5 5 10 5 5 5 5 4 7 5 3 3 3 2 2 2 2 1 2 2 2 2 3 3 3 2 2 2 2 2 2 2 2 1 1 2 1 1 1
11 11 9 6 5 5 11 10 6 5 5 5 6 5 4 3 3 2 2 2 2 2 2 1 2 2 3 3 3 2 2 2 2 2 2 1 1 1 1 1 1 2 2 1
10 12 13 5 6 9 7 6 5 5 5 5 4 4 4 3 2 2 3 2 1 1 1 2 2 2 3 3 2 2 2 2 2 2 2 1 2 2 2 2 2 2 2 2
9 10 8 6 7 5 5 5 5 5 4 4 4 4 3 4 3 3 3 2 2 1 3 2 2 2 3 3 2 2 2 2 2 2 2 1 2 2 2 2 2 3 3 3
8 7 7 6 5 4 4 5 4 4 4 4 4 4 4 4 3 3 3 3 3 3 4 3 2 2 2 2 2 2 2 2 2 2 2 2 2 2 2 2 3 3 3 3
10 7 6 6 5 4 4 4 4 4 4 4 5 5 5 5 4 3 3 3 3 3 4 3 3 2 2 2 2 2 2 2 2 2 2 5 8 8 2 6 5 2 2 2
12 9 9 7 5 4 5 5 4 4 5 4 4 5 4 4 4 4 4 3 4 4 4 3 3 2 2 2 2 2 3 3 3 2 3 4 5 7 14 13 14 14 11 4
9 6 7 5 4 4 4 4 4 4 4 4 4 4 4 4 4 5 4 3 3 3 3 3 3 3 2 2 2 2 3 2 2 3 2 3 2 3 5 9 12 13 13 11
6 6 7 7 6 4 5 4 4 3 3 4 4 3 3 4 3 4 4 3 3 3 3 3 3 3 2 1 1 2 2 5 2 2 2 2 2 2 2 4 3 4 10 9
6 5 6 5 5 5 4 4 5 5 5 4 3 3 3 4 4 3 3 2 2 3 3 2 3 2 1 1 1 2 2 2 2 2 2 2 2 2 2 2 2 3 5 6
6 5 5 5 5 5 5 6 6 5 5 5 4 4 3 3 3 3 2 2 3 3 3 3 3 2 1 1 1 1 1 3 2 1 2 2 2 2 2 2 2 3 2 2
7 7 6 6 6 5 6 6 6 7 4 4 3 3 3 3 3 3 3 2 2 3 2 2 2 1 1 0 1 1 2 1 2 2 2 2 2 2 2 2 2 2 2 1
7 7 5 5 5 5 5 5 4 6 4 4 3 3 3 3 4 3 2 3 2 3 2 2 1 1 1 1 1 1 1 1 1 2 2 2 1 1 1 2 2 2 2 3
5 5 5 5 5 4 4 4 4 3 3 3 3 3 3 3 3 3 3 3 3 4 3 2 1 1 1 2 2 1 2 2 2 2 2 2 2 2 2 2 3 2 2 2
4 4 4 4 3 3 4 3 3 3 3 3 3 3 3 3 3 3 2 3 3 2 1 1 1 1 1 1 1 1 1 2 2 2 2 2 2 2 2 4 2 2 2 2
4 4 3 4 4 3 3 3 3 4 3 3 3 4 4 3 3 2 3 4 2 1 1 1 2 3 1 1 1 1 1 2 2 2 2 2 2 2 2 2 1 2 2 2
4 4 3 3 4 4 3 3 3 3 3 3 3 3 3 3 3 3 2 2 1 4 2 2 3 3 2 2 1 1 1 2 2 1 2 2 2 2 2 2 2 1 2 1
3 3 3 3 3 3 2 2 2 2 3 3 3 3 3 3 3 3 4 1 1 3 2 3 3 2 2 1 1 1 1 1 1 1 1 1 1 1 2 2 2 2 2 1
3 4 3 3 2 2 3 2 2 1 1 1 1 1 1 3 2 1 1 2 2 2 1 1 1 2 3 1 1 1 1 1 1 1 1 4 1 1 1 1 1 1 1 1
3 3 3 3 3 3 2 2 2 2 2 1 1 0 -0 0 1 1 1 1 2 2 1 3 3 2 1 1 1 1 1 1 1 1 1 1 1 1 1 1 1 1 1 1
3 3 2 2 2 2 2 2 3 2 2 3 2 2 1 1 1 1 1 1 0 1 1 1 1 1 1 1 1 1 0 1 1 1 1 1 1 1 1 1 1 1 0 0
2 4 2 2 2 2 2 2 2 2 2 2 2 1 1 1 1 1 2 1 1 1 1 1 1 1 1 1 1 1 1 1 3 1 1 1 0 0 0 0 0 0 0 0